Regional Weather Roundup
Issued by NWS Sterling, VA

Home | Current Version | Previous Version | Text Only | Print | Product List | Glossary On
Versions: 1 2 3 4 5 6 7 8 9 10 11 12 13 14 15 16 17 18 19 20 21 22 23 24 25 26 27 28 29 30 31 32 33 34 35 36 37 38 39 40 41 42 43 44 45 46 47 48 49 50
000
ASUS41 KLWX 281610
RWRLWX

REGIONAL WEATHER ROUNDUP
NATIONAL WEATHER SERVICE BALTIMORE MD/WASHINGTON DC
1200 PM EDT TUE JUL 28 2015

Note: "FAIR" indicates few or no clouds below 12,000 feet
with no significant weather and/or obstructions to visibility.
 TC=TEMPERATURE CELSIUS

 * =Non NWS site. Station does not report precipitation (e.g. rain,
    snow, etc.), thunder, or fog.

DCZ001-MDZ009-015-VAZ040>042-051-053>054-281700-
WASHINGTON METRO

CITY           SKY/WX    TMP DP  RH WIND       PRES   REMARKS
WASHINGTON NAT MOSUNNY   89  73  59 NE3       30.01F HX  97
DULLES         MOSUNNY   85  73  67 NE6       30.02S HX  91
ANDREWS AFB    MOSUNNY   84  73  69 E5        30.01F HX  91
FT BELVOIR     MOSUNNY   87  74  65 VRB6      30.01S HX  94
QUANTICO       MOSUNNY   86  73  65 E6        30.01S HX  93
COLLEGE PARK*  MOSUNNY   86  73  66 CALM      30.01F HX  93
LEESBURG*      PTSUNNY   88  77  70 E6        30.03F HX 100
MANASSAS*      CLOUDY    84  73  70 CALM      30.01S HAZE    HX  91
GAITHERSBURG*  MOSUNNY   82  72  69 CALM      30.07S

$$

MDZ006>007-011-014-281700-
BALTIMORE METRO

CITY           SKY/WX    TMP DP  RH WIND       PRES   REMARKS
BWI AIRPORT    MOSUNNY   84  70  62 CALM      30.01S
MD SCIENCE CTR   N/A     86  73  65 MISG      30.01S HX  93
MARTIN STATE   MOSUNNY   86  79  79 SE8       30.03S HX  99
ANNAPOLIS      PTSUNNY   82  73  74 SE9       30.01S
FORT MEADE*    MOSUNNY   82  72  69 E6        30.04S

$$

MDZ012-015-019>023-281700-
MARYLAND EASTERN SHORE

CITY           SKY/WX    TMP DP  RH WIND       PRES   REMARKS
OCEAN CITY     MOSUNNY   84  74  71 S8        30.02R HX  91
SALISBURY      SUNNY     87  73  62 N3        30.01S HX  94
BAY BRIDGE AP*   N/A     81  73  78 NW6       30.02S
EASTON*        PTSUNNY   84  75  74 CALM      30.05S HX  92

$$

MDZ017>025-281700-
SOUTHERN MARYLAND

CITY           SKY/WX    TMP DP  RH WIND       PRES   REMARKS
PATUXENT RIVER MOSUNNY   82  73  74 E6        30.01S
ST INIGOES     PTSUNNY   85  75  72 NE3       30.00S HX  93
LEONARDTOWN*   MOSUNNY   82  72  69 CALM      30.03S

$$

MDZ003>005-281700-
NORTH CENTRAL MARYLAND

CITY           SKY/WX    TMP DP  RH WIND       PRES   REMARKS
FREDERICK*     PTSUNNY  N/A N/A N/A VRB5        N/A
HAGERSTOWN APT MOSUNNY   86  67  52 VRB5      30.04S
WESTMINSTER*   MOSUNNY   82  77  83 CALM      30.05S HX  91

$$

MDZ501>502-281700-
WESTERN MARYLAND

CITY           SKY/WX    TMP DP  RH WIND       PRES   REMARKS
OAKLAND*       SUNNY     75 N/A N/A SE8       30.14S
CUMBERLAND*    PTSUNNY   82  72  69 CALM      30.09S

$$

VAZ025>031-281700-
SHENANDOAH VALLEY

CITY           SKY/WX    TMP DP  RH WIND       PRES   REMARKS
WINCHESTER*    PTSUNNY   82  72  69 E5        30.04S
FRONT ROYAL*   PTSUNNY   79  73  83 CALM      30.03F
LURAY*         PTSUNNY   86  73  66 N6        30.04S HX  93
NEW MARKET*    PTSUNNY   82  74  76 CALM      30.02F
STAUNTON*      MOSUNNY   83  71  66 CALM      30.08S
WAYNESBORO*    FAIR      77  71  81 CALM      30.07F

$$

WVZ021-048>050-054>055-281700-
EASTERN WEST VIRGINIA PANHANDLE

CITY           SKY/WX    TMP DP  RH WIND       PRES   REMARKS
MARTINSBURG    PTSUNNY   84  70  62 SE3       30.04F
PETERSBURG*    MOSUNNY  N/A N/A N/A CALM      30.06F

$$

VAZ036>039-050-281700-
CENTRAL FOOTHILLS

CITY           SKY/WX    TMP DP  RH WIND       PRES   REMARKS
CHARLOTTESVILL PTSUNNY   81  72  74 E6        30.03S
CULPEPER*      PTSUNNY   82  74  78 CALM      30.03S
ORANGE*        PTSUNNY   82  73  74 N5        30.04S
GORDONSVILLE*  PTSUNNY   82  73  74 NE6       30.02S
WARRENTON*     CLOUDY    86  76  73 NE5       30.02S HX  96

$$

VAZ055>057-281700-
NORTH AND CENTRAL PIEDMONT

CITY           SKY/WX    TMP DP  RH WIND       PRES   REMARKS
FREDERICKSBRG* SUNNY     86  76  70 E3        30.00S HX  96
STAFFORD*      PTSUNNY   87  72  59 E8        30.05S HX  93

$$

NCZ024-NYZ072-PAZ021-071-VAZ022-071-281700-
OTHER REGIONAL OBSERVATIONS

CITY           SKY/WX    TMP DP  RH WIND       PRES   REMARKS
NEW YORK CITY  MOSUNNY   87  64  46 CALM      30.01F
PHILADELPHIA   MOSUNNY   86  69  56 S5        30.00F HX  90
PITTSBURGH     MOSUNNY   85  67  54 E8        30.04F
ROANOKE        PTSUNNY   82  71  69 CALM      30.07S
RICHMOND       PTSUNNY   85  74  69 SE7       30.01S HX  92
RALEIGH        PTSUNNY   86  71  60 SE6       30.03F HX  91

$$

ANZ530>537-281700-
MARINE OBSERVATIONS

STATION/POSITION TIME  TEMP    WIND        PRES
                       AIR SEA DIR/SP/G
                 (UTC) (F)     (DEG/KT/KT) (MB)
THOMAS PT LIGHT  NOT AVBL
BALT KEY BRIDGE  1500   79     130/  5/  6 1016.3R
COVE POINT       1500   79     120/  3/  3 1017.0S
LEWISETTA        1500   81 81   60/  5/  7 1015.9R
SOLOMONS ISLAND  1500      82                N/A

$$




USA.gov is the U.S. government's official web portal to all federal, state and local government web resources and services.